Ironwood, MI

9:39 AM CDT on June 22, 2017 (GMT -0500)
Gogebic-Iron County

Weather History for KIWD - March, 2014

Change the Weather History Date:

Monday, March 24, 2014

  Actual Average Record
Temperature  
Mean Temperature 6 °F -  
Max Temperature 24 °F 37 °F 64 °F (2007)
Min Temperature -11 °F 19 °F -11 °F (2014)
Degree Days  
Heating Degree Days 58    
Moisture  
Dew Point -2 °F    
Average Humidity 62    
Maximum Humidity 100    
Minimum Humidity 39    
Precipitation  
Precipitation 0.00 in - - ()
Sea Level Pressure  
Sea Level Pressure 30.06 in    
Wind  
Wind Speed 7 mph (West)    
Max Wind Speed 18 mph    
Max Gust Speed 25 mph    
Visibility 10 miles    
Events      
Averages and records for this station are not official NWS values.
T = Trace of Precipitation, MM = Missing Value Source: NWS Daily Summary

Daily Weather History Graph

Daily Weather History Graph

Search for Another Location

Airport or City:

Trip Planner

Search our weather history database for the weather conditions in past years. The results will help you decide how hot, cold, wet, or windy it might be!

Date:

Astronomy

Mar. 24, 2014 Rise Set
Actual Time 6:55 AM CDT 7:18 PM CDT
Civil Twilight 6:25 AM CDT 7:48 PM CDT
Nautical Twilight 5:49 AM CDT 8:24 PM CDT
Astronomical Twilight 5:13 AM CDT 9:01 PM CDT
Moon 2:45 AM CDT (3/24) 12:24 PM CDT (3/24)
Length of Visible Light 13h 23m
Length of Day
12h 23m
Last Quarter, 43% of the Moon is Illuminated
Mar 24
Last Quarter
Mar 30
New
Apr 7
First Quarter
Apr 15
Full
Apr 22
Last Quarter

Hourly Weather History & Observations

Time (CDT) Temp. Windchill Dew Point Humidity Pressure Visibility Wind Dir Wind Speed Gust Speed Precip Events Conditions
12:15 AM -4.0 °F - -9.4 °F 78% 30.23 in 10.0 mi Calm Calm - N/A   Scattered Clouds
12:35 AM -5.8 °F -14.5 °F -14.8 °F 65% 30.23 in 10.0 mi West 3.5 mph - N/A   Mostly Cloudy
12:55 AM -5.8 °F -16.7 °F -7.6 °F 92% 30.22 in 10.0 mi WSW 4.6 mph - N/A   Clear
1:15 AM -5.8 °F -14.5 °F -11.2 °F 77% 30.22 in 10.0 mi WSW 3.5 mph - N/A   Clear
1:35 AM -9.4 °F -18.6 °F -16.6 °F 71% 30.23 in 10.0 mi WSW 3.5 mph - N/A   Partly Cloudy
1:55 AM -5.8 °F -14.5 °F -9.4 °F 84% 30.22 in 10.0 mi WSW 3.5 mph - N/A   Clear
2:15 AM -7.6 °F -16.5 °F -14.8 °F 71% 30.22 in 10.0 mi WSW 3.5 mph - N/A   Clear
2:35 AM -7.6 °F -16.5 °F -16.6 °F 65% 30.21 in 10.0 mi WSW 3.5 mph - N/A   Clear
2:55 AM -7.6 °F -18.8 °F -9.4 °F 92% 30.20 in 10.0 mi WSW 4.6 mph - N/A   Scattered Clouds
3:15 AM -7.6 °F -18.8 °F -18.4 °F 59% 30.20 in 10.0 mi WSW 4.6 mph - N/A   Scattered Clouds
3:35 AM -7.6 °F -18.8 °F -7.6 °F 100% 30.19 in 10.0 mi WSW 4.6 mph - N/A   Clear
3:55 AM -9.4 °F -20.9 °F -22.0 °F 54% 30.18 in 10.0 mi WSW 4.6 mph - N/A   Clear
4:15 AM -9.4 °F -20.9 °F -13.0 °F 84% 30.18 in 10.0 mi WSW 4.6 mph - N/A   Clear
4:35 AM -7.6 °F -16.5 °F -7.6 °F 100% 30.17 in 10.0 mi WSW 3.5 mph - N/A   Clear
4:55 AM -7.6 °F -16.5 °F -16.6 °F 65% 30.16 in 10.0 mi WSW 3.5 mph - N/A   Clear
5:15 AM -9.4 °F -18.6 °F -11.2 °F 92% 30.16 in 10.0 mi WSW 3.5 mph - N/A   Clear
5:35 AM -7.6 °F -16.5 °F -18.4 °F 59% 30.16 in 10.0 mi WSW 3.5 mph - N/A   Clear
5:55 AM -5.8 °F -16.7 °F -5.8 °F 100% 30.16 in 10.0 mi WSW 4.6 mph - N/A   Clear
6:15 AM -11.2 °F -24.8 °F -23.8 °F 54% 30.16 in 10.0 mi WSW 5.8 mph - N/A   Clear
6:35 AM -5.8 °F -22.4 °F -5.8 °F 100% 30.16 in 10.0 mi WSW 9.2 mph - N/A   Clear
6:55 AM -2.2 °F -16.8 °F -14.8 °F 55% 30.16 in 10.0 mi WSW 8.1 mph - N/A   Clear
7:15 AM -0.4 °F -13.4 °F -0.4 °F 100% 30.16 in 10.0 mi WSW 6.9 mph - N/A   Clear
7:35 AM -0.4 °F -15.7 °F -7.6 °F 72% 30.15 in 10.0 mi WSW 9.2 mph - N/A   Clear
7:55 AM 1.4 °F -12.5 °F -2.2 °F 85% 30.15 in 10.0 mi WSW 8.1 mph - N/A   Clear
8:15 AM 1.4 °F -11.3 °F -2.2 °F 85% 30.14 in 10.0 mi WSW 6.9 mph - N/A   Clear
8:35 AM 3.2 °F -11.3 °F 1.4 °F 92% 30.14 in 10.0 mi West 9.2 mph - N/A   Clear
8:55 AM 6.8 °F -5.9 °F 1.4 °F 79% 30.13 in 10.0 mi WSW 8.1 mph - N/A   Mostly Cloudy
9:15 AM 8.6 °F -2.6 °F 3.2 °F 79% 30.13 in 7.0 mi WSW 6.9 mph - N/A   Overcast
9:35 AM 10.4 °F -1.5 °F 6.8 °F 85% 30.13 in 7.0 mi West 8.1 mph - N/A   Overcast
9:55 AM 12.2 °F -1.0 °F 6.8 °F 79% 30.13 in 8.0 mi West 10.4 mph - N/A   Overcast
10:15 AM 12.2 °F 2.9 °F 5.0 °F 73% 30.12 in 10.0 mi WSW 5.8 mph - N/A   Overcast
10:35 AM 14.0 °F 1.2 °F 6.8 °F 73% 30.12 in 10.0 mi West 10.4 mph - N/A   Overcast
10:55 AM 15.8 °F 2.1 °F 6.8 °F 68% 30.11 in 10.0 mi West 12.7 mph 19.6 mph N/A   Scattered Clouds
11:15 AM 17.6 °F 3.2 °F 1.4 °F 49% 30.10 in 10.0 mi West 15.0 mph - N/A   Clear
11:35 AM 17.6 °F 2.2 °F 1.4 °F 49% 30.10 in 10.0 mi West 17.3 mph - N/A   Clear
11:55 AM 17.6 °F 3.2 °F 1.4 °F 49% 30.09 in 10.0 mi West 15.0 mph - N/A   Clear
12:15 PM 19.4 °F 4.1 °F 1.4 °F 46% 30.08 in 10.0 mi West 18.4 mph - N/A   Clear
12:35 PM 19.4 °F 4.1 °F -0.4 °F 42% 30.07 in 10.0 mi West 18.4 mph 25.3 mph N/A   Clear
12:55 PM 19.4 °F 6.0 °F 1.4 °F 46% 30.07 in 10.0 mi WNW 13.8 mph 21.9 mph N/A   Clear
1:15 PM 21.2 °F 8.3 °F 1.4 °F 42% 30.06 in 10.0 mi WNW 13.8 mph 20.7 mph N/A   Clear
1:35 PM 21.2 °F 8.9 °F 3.2 °F 46% 30.05 in 10.0 mi WNW 12.7 mph 19.6 mph N/A   Partly Cloudy
1:55 PM 21.2 °F 9.5 °F 3.2 °F 46% 30.04 in 10.0 mi West 11.5 mph 16.1 mph N/A   Scattered Clouds
2:15 PM 21.2 °F 7.3 °F 3.2 °F 46% 30.02 in 10.0 mi West 16.1 mph 21.9 mph N/A   Partly Cloudy
2:35 PM 21.2 °F 8.3 °F 1.4 °F 42% 30.01 in 10.0 mi WNW 13.8 mph 24.2 mph N/A   Partly Cloudy
2:55 PM 23.0 °F 10.6 °F 3.2 °F 43% 30.00 in 10.0 mi WNW 13.8 mph 24.2 mph N/A   Scattered Clouds
3:15 PM 23.0 °F 9.6 °F 3.2 °F 43% 29.99 in 10.0 mi WNW 16.1 mph 24.2 mph N/A   Mostly Cloudy
3:35 PM 23.0 °F 11.1 °F 1.4 °F 39% 29.98 in 10.0 mi WNW 12.7 mph 16.1 mph N/A   Scattered Clouds
3:55 PM 24.8 °F 15.3 °F 3.2 °F 40% 29.97 in 10.0 mi West 9.2 mph - N/A   Mostly Cloudy
4:15 PM 24.8 °F 13.4 °F 3.2 °F 40% 29.97 in 10.0 mi WNW 12.7 mph - N/A   Overcast
4:35 PM 24.8 °F 13.4 °F 3.2 °F 40% 29.96 in 10.0 mi WNW 12.7 mph - N/A   Mostly Cloudy
4:55 PM 23.0 °F 11.7 °F 3.2 °F 43% 29.96 in 10.0 mi NW 11.5 mph - N/A   Mostly Cloudy
5:15 PM 23.0 °F 11.7 °F 3.2 °F 43% 29.95 in 10.0 mi NW 11.5 mph - N/A   Overcast
5:35 PM 24.8 °F 14.0 °F 3.2 °F 40% 29.95 in 10.0 mi WNW 11.5 mph - N/A   Overcast
5:55 PM 23.0 °F 10.6 °F 5.0 °F 46% 29.94 in 10.0 mi WNW 13.8 mph 18.4 mph N/A   Overcast
6:15 PM 23.0 °F 9.6 °F 3.2 °F 43% 29.94 in 10.0 mi WNW 16.1 mph 21.9 mph N/A   Mostly Cloudy
6:35 PM 21.2 °F 9.5 °F 6.8 °F 54% 29.94 in 10.0 mi WNW 11.5 mph 19.6 mph N/A   Mostly Cloudy
6:55 PM 21.2 °F 9.5 °F 5.0 °F 50% 29.93 in 10.0 mi West 11.5 mph 17.3 mph N/A   Mostly Cloudy
7:15 PM 21.2 °F 10.1 °F 3.2 °F 46% 29.93 in 10.0 mi WNW 10.4 mph - N/A   Mostly Cloudy
7:35 PM 21.2 °F 9.5 °F 3.2 °F 46% 29.93 in 10.0 mi WNW 11.5 mph - N/A   Partly Cloudy
7:55 PM 21.2 °F 11.7 °F 1.4 °F 42% 29.93 in 10.0 mi WNW 8.1 mph - N/A   Partly Cloudy
8:15 PM 21.2 °F 11.7 °F 1.4 °F 42% 29.93 in 10.0 mi West 8.1 mph - N/A   Clear
8:35 PM 17.6 °F 8.2 °F -0.4 °F 45% 29.92 in 10.0 mi West 6.9 mph - N/A   Scattered Clouds
8:55 PM 17.6 °F 9.3 °F 1.4 °F 49% 29.92 in 10.0 mi West 5.8 mph - N/A   Mostly Cloudy
9:15 PM 17.6 °F 9.3 °F 1.4 °F 49% 29.92 in 10.0 mi West 5.8 mph - N/A   Mostly Cloudy
9:35 PM 17.6 °F 9.3 °F 1.4 °F 49% 29.91 in 10.0 mi West 5.8 mph - N/A   Scattered Clouds
9:55 PM 17.6 °F 8.2 °F 1.4 °F 49% 29.91 in 10.0 mi West 6.9 mph - N/A   Mostly Cloudy
10:15 PM 17.6 °F 7.3 °F 3.2 °F 53% 29.91 in 10.0 mi West 8.1 mph - N/A   Overcast
10:35 PM 19.4 °F 6.6 °F 8.6 °F 63% 29.91 in 10.0 mi WNW 12.7 mph - N/A   Overcast
10:55 PM 17.6 °F 4.3 °F 12.2 °F 79% 29.91 in 1.0 mi NW 12.7 mph - N/A   Overcast
11:15 PM 17.6 °F 3.2 °F 12.2 °F 79% 29.92 in 1.8 mi NW 15.0 mph 18.4 mph N/A   Overcast
11:35 PM 17.6 °F 4.3 °F 12.2 °F 79% 29.92 in 5.0 mi NW 12.7 mph - N/A   Mostly Cloudy
11:55 PM 17.6 °F 5.0 °F 10.4 °F 73% 29.93 in 6.0 mi NW 11.5 mph 20.7 mph N/A   Overcast